Flag for Malaysia Weather past 2 weeks in Kuala Lumpur, Malaysia

Now
88 °F

Partly sunny.


Feels Like: 96 °F
Forecast: 78 / 90 °F
Wind: 5 mph from East

Location: Sultan Abdul Aziz Shah-Subang

Current Time: May 30, 2015 at 11:14:56 AM

Latest Report: May 30, 2015 at 10:00 AM


Visibility: N/A

Pressure: 29.86 "Hg

Humidity: 62%

Dew point: 73 °F

Location of Kuala LumpurLocation

Historic Weather in Kuala Lumpur — Graph

°F

Kuala Lumpur temperature yesterday

Maximum temperature yesterday: 93 °F (at 2:00 PM)
Minimum temperature yesterday: 79 °F (at 6:00 AM)
Average temperature yesterday: 84 °F

Past Weeks' High & Low Weather Summary

 TemperatureHumidityPressure
High95 °F (May 27, 3:00 PM)100% (May 26, 3:00 AM)29.92 "Hg (May 26, 3:00 AM)
Low73 °F (May 26, 3:00 AM)53% (May 22, 4:00 PM)29.74 "Hg (May 16, 6:00 PM)
Average83 °F80%29.84 "Hg
* Reported May 15 10:00 AM — May 30 10:00 AM, Kuala Lumpur, Weather by CustomWeather, © 2015

Note: Actual official high and low records may vary slightly from our data, if they occured in-between our weather recording intervals... More about our weather records

Advertising

Kuala Lumpur weather history for previous 24 hours

 ConditionsComfort  
Time TempWeatherWind HumidityBarometerVisibility
10:00 AM
Sat, May 30
88 °FPartly sunny.5 mph62%29.86 "HgN/A
9:00 AM84 °FPartly sunny.5 mph74%29.86 "HgN/A
8:00 AM81 °FPartly cloudy.2 mph84%29.83 "HgN/A
7:00 AM79 °FPartly cloudy.1 mph89%29.83 "HgN/A
6:00 AM79 °FPartly cloudy.1 mph89%29.80 "HgN/A
5:00 AM79 °FPartly cloudy.1 mph94%29.80 "HgN/A
4:00 AM81 °FPartly cloudy.2 mph84%29.80 "HgN/A
3:00 AM81 °FPartly cloudy.2 mph89%29.83 "HgN/A
2:00 AM81 °FPartly cloudy.2 mph89%29.83 "HgN/A
1:00 AM81 °FPartly cloudy.No wind89%29.86 "HgN/A
12:00 AM81 °FPartly cloudy.2 mph89%29.86 "HgN/A
11:00 PM
Fri, May 29
81 °FPartly cloudy.1 mph89%29.86 "HgN/A
10:00 PM81 °FPartly cloudy.1 mph89%29.86 "HgN/A
9:00 PM81 °FPartly cloudy.2 mph84%29.83 "HgN/A
8:00 PM81 °FBroken clouds.2 mph89%29.80 "HgN/A
7:00 PM81 °FBroken clouds.2 mph94%29.80 "Hg6 mi
6:00 PM84 °FThunderstorms. Broken clouds.7 mph74%29.77 "Hg6 mi
5:00 PM90 °FThunderstorms. Broken clouds.14 mph67%29.74 "HgN/A
4:00 PM93 °FPartly sunny.9 mph63%29.74 "HgN/A
3:00 PM93 °FBroken clouds.7 mph56%29.77 "HgN/A
2:00 PM93 °FBroken clouds.6 mph59%29.80 "HgN/A
1:00 PM91 °FBroken clouds.7 mph59%29.83 "HgN/A
12:00 PM91 °FBroken clouds.9 mph63%29.86 "HgN/A
11:00 AM90 °FBroken clouds.9 mph67%29.86 "HgN/A
Weather by CustomWeather, © 2015

See weather overviewHow to use our weather pages